• In Austria
  • List of Countries
  • For 7 days
  • Water Temperature
  • Satellite Maps
  • Weather Map
  • News
  • Weather Widgets
  • user-avatar
    Login

    Hourly Weather Santiago del Estero

    Today, 24 May, Thursday

    Time Temperature Precipitation Wind Pressure Humidity
    00:00 +14°C° 0 mm 2 mps 750 mmHg 68%
    01:00 +14°C° 0 mm 2 mps 750 mmHg 70%
    02:00 +13°C° 0 mm 2 mps 750 mmHg 72%
    03:00 +13°C° 0 mm 2 mps 749 mmHg 73%
    04:00 +12°C° 0 mm 2 mps 749 mmHg 75%
    05:00 +12°C° 0 mm 2 mps 749 mmHg 77%
    06:00 +12°C° 0 mm 2 mps 749 mmHg 75%
    07:00 +13°C° 0 mm 2 mps 749 mmHg 74%
    08:00 +13°C° 0 mm 2 mps 750 mmHg 72%
    09:00 +16°C° 0 mm 2 mps 750 mmHg 64%
    10:00 +18°C° 0 mm 3 mps 750 mmHg 57%
    11:00 +20°C° 0 mm 3 mps 750 mmHg 49%
    12:00 +21°C° 0 mm 3 mps 749 mmHg 46%
    13:00 +22°C° 0 mm 3 mps 749 mmHg 42%
    14:00 +23°C° 0 mm 4 mps 748 mmHg 39%
    15:00 +22°C° 0 mm 3 mps 748 mmHg 42%
    16:00 +22°C° 0 mm 3 mps 747 mmHg 45%
    17:00 +21°C° 0 mm 2 mps 747 mmHg 48%
    18:00 +19°C° 0 mm 2 mps 747 mmHg 51%
    19:00 +18°C° 0 mm 2 mps 748 mmHg 55%
    20:00 +16°C° 0 mm 3 mps 748 mmHg 58%
    21:00 +16°C° 0 mm 3 mps 748 mmHg 60%
    22:00 +14°C° 0 mm 3 mps 748 mmHg 61%
    23:00 +13°C° 0 mm 3 mps 748 mmHg 63%

    Tomorrow, 25 May, Friday

    Time Temperature Precipitation Wind Pressure Humidity
    00:00 +13°C° 0 mm 3 mps 748 mmHg 64%
    01:00 +13°C° 0 mm 2 mps 748 mmHg 65%
    02:00 +13°C° 0 mm 2 mps 747 mmHg 65%
    03:00 +12°C° 0 mm 2 mps 747 mmHg 67%
    04:00 +12°C° 0 mm 2 mps 747 mmHg 69%
    05:00 +12°C° 0 mm 2 mps 747 mmHg 70%
    06:00 +12°C° 0 mm 2 mps 747 mmHg 70%
    07:00 +12°C° 0 mm 2 mps 747 mmHg 69%
    08:00 +13°C° 0 mm 2 mps 748 mmHg 68%
    09:00 +14°C° 0 mm 3 mps 748 mmHg 61%
    10:00 +18°C° 0 mm 3 mps 748 mmHg 53%
    11:00 +20°C° 0 mm 4 mps 748 mmHg 46%
    12:00 +22°C° 0 mm 4 mps 747 mmHg 43%
    13:00 +23°C° 0 mm 4 mps 746 mmHg 41%
    14:00 +25°C° 0 mm 4 mps 745 mmHg 38%
    15:00 +23°C° 0 mm 4 mps 745 mmHg 41%
    16:00 +24°C° 0 mm 3 mps 745 mmHg 44%
    17:00 +23°C° 0 mm 2 mps 744 mmHg 47%
    18:00 +20°C° 0 mm 3 mps 744 mmHg 50%
    19:00 +19°C° 0 mm 3 mps 744 mmHg 54%
    20:00 +17°C° 0 mm 3 mps 744 mmHg 57%
    21:00 +17°C° 0 mm 3 mps 744 mmHg 59%
    22:00 +16°C° 0 mm 3 mps 744 mmHg 61%
    23:00 +14°C° 0 mm 3 mps 744 mmHg 63%

    Day after tomorrow, 26 May, Saturday

    Time Temperature Precipitation Wind Pressure Humidity
    00:00 +14°C° 0 mm 3 mps 744 mmHg 65%
    01:00 +14°C° 0 mm 3 mps 743 mmHg 67%
    02:00 +13°C° 0 mm 3 mps 743 mmHg 69%
    03:00 +13°C° 0 mm 3 mps 743 mmHg 70%
    04:00 +13°C° 0 mm 3 mps 742 mmHg 71%
    05:00 +13°C° 0 mm 3 mps 742 mmHg 72%
    06:00 +13°C° 0 mm 3 mps 742 mmHg 72%
    07:00 +13°C° 0 mm 4 mps 742 mmHg 71%
    08:00 +14°C° 0 mm 4 mps 742 mmHg 70%
    09:00 +17°C° 0 mm 5 mps 742 mmHg 62%
    10:00 +20°C° 0 mm 6 mps 742 mmHg 54%
    11:00 +23°C° 0 mm 7 mps 742 mmHg 46%
    12:00 +24°C° 0 mm 7 mps 741 mmHg 44%
    13:00 +27°C° 0 mm 7 mps 740 mmHg 42%
    14:00 +28°C° 0 mm 7 mps 739 mmHg 40%
    15:00 +27°C° 0 mm 6 mps 739 mmHg 43%
    16:00 +27°C° 0 mm 5 mps 739 mmHg 47%
    17:00 +26°C° 0 mm 3 mps 739 mmHg 50%
    18:00 +24°C° 0 mm 3 mps 739 mmHg 54%
    19:00 +22°C° 0 mm 3 mps 740 mmHg 58%
    20:00 +21°C° 0 mm 3 mps 740 mmHg 62%
    21:00 +20°C° 0 mm 3 mps 741 mmHg 65%
    22:00 +20°C° 0 mm 3 mps 741 mmHg 67%
    23:00 +19°C° 0 mm 2 mps 741 mmHg 70%

    27 May, Sunday

    Time Temperature Precipitation Wind Pressure Humidity
    00:00 +18°C° 0 mm 2 mps 742 mmHg 72%
    01:00 +18°C° 0 mm 2 mps 742 mmHg 75%
    02:00 +17°C° 0 mm 2 mps 742 mmHg 77%
    03:00 +18°C° 0 mm 1 mps 742 mmHg 79%
    04:00 +18°C° 0 mm 1 mps 742 mmHg 81%
    05:00 +16°C° 0 mm 1 mps 742 mmHg 82%
    06:00 +18°C° 0 mm 1 mps 743 mmHg 80%
    07:00 +19°C° 0 mm 1 mps 744 mmHg 79%
    08:00 +19°C° 0 mm 1 mps 744 mmHg 77%
    09:00 +20°C° 0 mm 2 mps 744 mmHg 70%
    10:00 +23°C° 0 mm 2 mps 745 mmHg 63%
    11:00 +26°C° 0 mm 2 mps 745 mmHg 57%
    12:00 +27°C° 0 mm 3 mps 744 mmHg 54%
    13:00 +28°C° 0 mm 3 mps 743 mmHg 51%
    14:00 +29°C° 0 mm 3 mps 743 mmHg 49%
    15:00 +28°C° 0 mm 3 mps 742 mmHg 52%
    16:00 +28°C° 0 mm 2 mps 742 mmHg 55%
    17:00 +27°C° 0 mm 2 mps 742 mmHg 58%
    18:00 +26°C° 0 mm 3 mps 742 mmHg 62%
    19:00 +25°C° 0 mm 3 mps 743 mmHg 66%
    20:00 +24°C° 0 mm 3 mps 743 mmHg 69%
    21:00 +24°C° 0 mm 3 mps 743 mmHg 72%
    22:00 +22°C° 0 mm 3 mps 743 mmHg 76%
    23:00 +21°C° 0 mm 3 mps 742 mmHg 79%

    28 May, Monday

    Time Temperature Precipitation Wind Pressure Humidity
    00:00 +21°C° 0 mm 3 mps 742 mmHg 80%
    01:00 +21°C° 0 mm 3 mps 741 mmHg 82%
    02:00 +21°C° 0 mm 3 mps 741 mmHg 84%
    03:00 +21°C° 0 mm 3 mps 740 mmHg 86%
    04:00 +20°C° 0 mm 3 mps 740 mmHg 87%
    05:00 +20°C° 0 mm 3 mps 740 mmHg 88%
    06:00 +21°C° 0 mm 4 mps 740 mmHg 86%
    07:00 +21°C° 0 mm 4 mps 740 mmHg 84%
    08:00 +22°C° 0 mm 5 mps 740 mmHg 81%
    09:00 +24°C° 0 mm 6 mps 740 mmHg 71%
    10:00 +28°C° 0 mm 8 mps 739 mmHg 62%
    11:00 +31°C° 0 mm 9 mps 739 mmHg 52%
    12:00 +31°C° 0 mm 9 mps 738 mmHg 50%
    13:00 +32°C° 0 mm 9 mps 737 mmHg 49%
    14:00 +32°C° 0 mm 9 mps 737 mmHg 48%
    15:00 +32°C° 0 mm 8 mps 736 mmHg 50%
    16:00 +31°C° 0 mm 8 mps 736 mmHg 52%
    17:00 +29°C° 0 mm 7 mps 736 mmHg 54%
    18:00 +29°C° 0 mm 7 mps 736 mmHg 54%
    19:00 +28°C° 0 mm 7 mps 736 mmHg 55%
    20:00 +27°C° 0 mm 6 mps 736 mmHg 56%
    21:00 +27°C° 0 mm 6 mps 736 mmHg 55%
    22:00 +27°C° 0 mm 6 mps 736 mmHg 55%
    23:00 +27°C° 0 mm 6 mps 736 mmHg 54%

    29 May, Tuesday

    Time Temperature Precipitation Wind Pressure Humidity
    00:00 +26°C° 0 mm 6 mps 735 mmHg 54%
    01:00 +26°C° 0 mm 6 mps 735 mmHg 53%
    02:00 +26°C° 0 mm 6 mps 734 mmHg 53%
    03:00 +26°C° 0 mm 6 mps 734 mmHg 54%
    04:00 +26°C° 0 mm 6 mps 734 mmHg 54%
    05:00 +24°C° 0 mm 6 mps 734 mmHg 55%
    06:00 +25°C° 0 mm 5 mps 734 mmHg 57%
    07:00 +25°C° 0 mm 5 mps 734 mmHg 58%
    08:00 +25°C° 0 mm 5 mps 735 mmHg 59%
    09:00 +27°C° 0 mm 6 mps 735 mmHg 56%
    10:00 +29°C° 0 mm 7 mps 735 mmHg 52%
    11:00 +31°C° 0 mm 8 mps 735 mmHg 49%
    12:00 +32°C° 0 mm 7 mps 734 mmHg 47%
    13:00 +33°C° 0 mm 6 mps 734 mmHg 45%
    14:00 +34°C° 0 mm 5 mps 733 mmHg 43%
    15:00 +33°C° 0 mm 4 mps 733 mmHg 46%
    16:00 +33°C° 0 mm 3 mps 733 mmHg 48%
    17:00 +31°C° 0 mm 2 mps 733 mmHg 51%
    18:00 +29°C° 0 mm 2 mps 734 mmHg 55%
    19:00 +28°C° 0 mm 2 mps 734 mmHg 58%
    20:00 +27°C° 0 mm 2 mps 735 mmHg 62%
    21:00 +26°C° 0 mm 2 mps 735 mmHg 64%
    22:00 +26°C° 0 mm 2 mps 735 mmHg 66%
    23:00 +25°C° 0 mm 1 mps 735 mmHg 67%
    Show more